Simultaneous Nadir Overpasses (SNOs) Predictions

Prediction of SNOs between GOES-16 and METOP-B Satellite Orbit:

Table of predicted SNOs for the next 14.0 days since TLE Epoch: 7/23/2022
Index Date Time (GOES-16) GOES-16 Lat,Lon METOP-B Lat,Lon Distance(km) Time Diff (sec)
1 07/24/2022 14:30:35 0.00, -75.21 -0.11, -74.82 44.71 80
2 07/26/2022 02:46:54 -0.02, -75.20 -0.93, -79.41 479.23 80
3 07/27/2022 02:26:13 -0.01, -75.21 0.14, -74.41 90.37 80
4 07/28/2022 14:47:46 0.00, -75.23 0.83, -78.98 426.98 80
5 07/29/2022 14:24:26 -0.00, -75.24 -0.30, -73.99 143.09 80
6 07/31/2022 02:46:06 0.00, -75.24 -0.74, -78.58 380.15 80
7 08/01/2022 02:22:46 0.01, -75.26 0.40, -73.59 190.37 80
8 08/02/2022 14:44:17 -0.01, -75.29 0.62, -78.15 325.55 80
9 08/03/2022 14:20:58 -0.01, -75.31 -0.51, -73.16 245.35 80
10 08/05/2022 02:42:37 0.01, -75.32 -0.52, -77.75 276.74 80
